| time (UTC) | temp F | wind direction | speed MPH | gust MPH | rain 1hr in | rain 24hr in | rain mn in | humidity % | barometer mb |
| 20260906100105 | 85 | 62 | 3.0 | 11.0 | 0.00 | 0.00 | 0.00 | 50 | 1022.5 |
| 20260906095627 | 85 | 37 | 6.0 | 11.0 | 0.00 | 0.00 | 0.00 | 50 | 1022.5 |
| 20260906095059 | 85 | 142 | 2.0 | 12.0 | 0.00 | 0.00 | 0.00 | 51 | 1022.5 |
| 20260906094620 | 85 | 46 | 4.0 | 10.0 | 0.00 | 0.00 | 0.00 | 51 | 1022.6 |
| 20260906094116 | 85 | 60 | 4.0 | 9.0 | 0.00 | 0.00 | 0.00 | 51 | 1022.6 |
| 20260906093615 | 85 | 82 | 5.0 | 9.0 | 0.00 | 0.00 | 0.00 | 51 | 1022.6 |
| 20260906093109 | 85 | 88 | 3.0 | 9.0 | 0.00 | 0.00 | 0.00 | 51 | 1022.7 |
| 20260906092630 | 84 | 98 | 4.0 | 9.0 | 0.00 | 0.00 | 0.00 | 52 | 1022.7 |
| 20260906092103 | 84 | 49 | 4.0 | 10.0 | 0.00 | 0.00 | 0.00 | 53 | 1022.8 |
| 20260906091604 | 84 | 63 | 5.0 | 10.0 | 0.00 | 0.00 | 0.00 | 51 | 1022.8 |
| 20260906091057 | 84 | 85 | 3.0 | 10.0 | 0.00 | 0.00 | 0.00 | 53 | 1022.8 |
| 20260906090619 | 84 | 76 | 2.0 | 8.0 | 0.00 | 0.00 | 0.00 | 53 | 1022.8 |
| 20260906090051 | 83 | 85 | 5.0 | 9.0 | 0.00 | 0.00 | 0.00 | 53 | 1022.8 |
| 20260906085552 | 83 | 84 | 4.0 | 9.0 | 0.00 | 0.00 | 0.00 | 53 | 1022.9 |
| 20260906085113 | 83 | 33 | 4.0 | 10.0 | 0.00 | 0.00 | 0.00 | 53 | 1022.9 |
| 20260906084606 | 83 | 74 | 6.0 | 10.0 | 0.00 | 0.00 | 0.00 | 52 | 1022.8 |
| 20260906084100 | 83 | 69 | 5.0 | 10.0 | 0.00 | 0.00 | 0.00 | 53 | 1022.8 |
| 20260906083601 | 83 | 80 | 3.0 | 10.0 | 0.00 | 0.00 | 0.00 | 53 | 1022.8 |
| 20260906083055 | 83 | 66 | 5.0 | 10.0 | 0.00 | 0.00 | 0.00 | 53 | 1022.9 |
| 20260906082616 | 83 | 77 | 5.0 | 10.0 | 0.00 | 0.00 | 0.00 | 54 | 1022.8 |
| 20260906082056 | 83 | 355 | 4.0 | 11.0 | 0.00 | 0.00 | 0.00 | 54 | 1022.8 |
| 20260906081637 | 83 | 43 | 5.0 | 11.0 | 0.00 | 0.00 | 0.00 | 54 | 1022.8 |
| 20260906081109 | 82 | 36 | 4.0 | 10.0 | 0.00 | 0.00 | 0.00 | 55 | 1022.7 |
| 20260906080610 | 82 | 91 | 3.0 | 12.0 | 0.00 | 0.00 | 0.00 | 57 | 1022.8 |
| 20260906080103 | 82 | 79 | 5.0 | 12.0 | 0.00 | 0.00 | 0.00 | 57 | 1022.8 |
| 20260906075604 | 81 | 76 | 5.0 | 12.0 | 0.00 | 0.00 | 0.00 | 57 | 1022.8 |
| 20260906075057 | 81 | 36 | 6.0 | 10.0 | 0.00 | 0.00 | 0.00 | 58 | 1022.7 |
| 20260906074558 | 81 | 69 | 4.0 | 10.0 | 0.00 | 0.00 | 0.00 | 58 | 1022.7 |
| 20260906074120 | 81 | 74 | 5.0 | 9.0 | 0.00 | 0.00 | 0.00 | 59 | 1022.7 |
| 20260906073609 | 80 | 72 | 4.0 | 10.0 | 0.00 | 0.00 | 0.00 | 60 | 1022.6 |
| 20260906073108 | 80 | 47 | 5.0 | 10.0 | 0.00 | 0.00 | 0.00 | 60 | 1022.5 |
| 20260906072602 | 80 | 61 | 5.0 | 11.0 | 0.00 | 0.00 | 0.00 | 60 | 1022.6 |
| 20260906072103 | 80 | 57 | 4.0 | 11.0 | 0.00 | 0.00 | 0.00 | 61 | 1022.6 |
| 20260906071557 | 79 | 46 | 4.0 | 10.0 | 0.00 | 0.00 | 0.00 | 62 | 1022.5 |
| 20260906071057 | 79 | 74 | 4.0 | 10.0 | 0.00 | 0.00 | 0.00 | 63 | 1022.5 |
| 20260906070556 | 79 | 355 | 3.0 | 6.0 | 0.00 | 0.00 | 0.00 | 64 | 1022.4 |
| 20260906070106 | 78 | 49 | 2.0 | 8.0 | 0.00 | 0.00 | 0.00 | 66 | 1022.4 |
| 20260906065626 | 78 | 34 | 4.0 | 8.0 | 0.00 | 0.00 | 0.00 | 66 | 1022.4 |
| 20260906065105 | 78 | 39 | 3.0 | 9.0 | 0.00 | 0.00 | 0.00 | 66 | 1022.4 |
| 20260906064607 | 78 | 33 | 4.0 | 9.0 | 0.00 | 0.00 | 0.00 | 66 | 1022.3 |
| 20260906064100 | 77 | 18 | 4.0 | 9.0 | 0.00 | 0.00 | 0.00 | 67 | 1022.2 |
| 20260906063554 | 77 | 34 | 4.0 | 8.0 | 0.00 | 0.00 | 0.00 | 68 | 1022.2 |
| 20260906063055 | 77 | 46 | 2.0 | 5.0 | 0.00 | 0.00 | 0.00 | 70 | 1022.2 |
| 20260906062552 | 76 | 34 | 2.0 | 9.0 | 0.00 | 0.00 | 0.00 | 70 | 1022.1 |
| 20260906062053 | 76 | 19 | 2.0 | 5.0 | 0.00 | 0.00 | 0.00 | 72 | 1022.0 |
| 20260906061615 | 76 | 40 | 2.0 | 6.0 | 0.00 | 0.00 | 0.00 | 73 | 1022.0 |
| 20260906061108 | 75 | 28 | 2.0 | 6.0 | 0.00 | 0.00 | 0.00 | 73 | 1022.0 |
| 20260906060629 | 75 | 5 | 2.0 | 5.0 | 0.00 | 0.00 | 0.00 | 74 | 1021.9 |
| 20260906060108 | 75 | 14 | 1.0 | 4.0 | 0.00 | 0.00 | 0.00 | 75 | 1021.9 |
| 20260906055602 | 74 | 13 | 2.0 | 4.0 | 0.00 | 0.00 | 0.00 | 75 | 1021.9 |
| 20260906055102 | 74 | 17 | 1.0 | 3.0 | 0.00 | 0.00 | 0.00 | 77 | 1021.8 |
| 20260906054555 | 73 | 16 | 0.0 | 4.0 | 0.00 | 0.00 | 0.00 | 78 | 1021.7 |
| 20260906054116 | 73 | 17 | 0.0 | 5.0 | 0.00 | 0.00 | 0.00 | 78 | 1021.5 |
| 20260906053610 | 72 | 346 | 1.0 | 5.0 | 0.00 | 0.00 | 0.00 | 79 | 1021.5 |
| 20260906053110 | 72 | 5 | 1.0 | 3.0 | 0.00 | 0.00 | 0.00 | 80 | 1021.5 |
| 20260906052604 | 72 | 5 | 0.0 | 2.0 | 0.00 | 0.00 | 0.00 | 81 | 1021.4 |
| 20260906052105 | 72 | 5 | 1.0 | 2.0 | 0.00 | 0.00 | 0.00 | 81 | 1021.5 |
| 20260906051559 | 71 | 5 | 0.0 | 2.0 | 0.00 | 0.00 | 0.00 | 81 | 1021.4 |
| 20260906051053 | 71 | 5 | 0.0 | 2.0 | 0.00 | 0.00 | 0.00 | 81 | 1021.4 |
| 20260906050554 | 71 | 5 | 0.0 | 3.0 | 0.00 | 0.00 | 0.00 | 81 | 1021.3 |
| 20260906050112 | 71 | 5 | 1.0 | 3.0 | 0.00 | 0.00 | 0.00 | 81 | 1021.3 |
| 20260906045604 | 72 | 5 | 0.0 | 2.0 | 0.00 | 0.00 | 0.00 | 81 | 1021.2 |
| 20260906045105 | 72 | 5 | 0.0 | 2.0 | 0.00 | 0.00 | 0.00 | 80 | 1021.1 |
| 20260906044626 | 72 | 5 | 0.0 | 2.0 | 0.00 | 0.00 | 0.00 | 80 | 1021.1 |
| 20260906044059 | 72 | 5 | 1.0 | 2.0 | 0.00 | 0.00 | 0.00 | 80 | 1021.1 |
| 20260906043558 | 72 | 5 | 0.0 | 2.0 | 0.00 | 0.00 | 0.00 | 80 | 1021.0 |
| 20260906043052 | 72 | 5 | 1.0 | 3.0 | 0.00 | 0.00 | 0.00 | 80 | 1020.9 |
| 20260906042613 | 72 | 5 | 1.0 | 4.0 | 0.00 | 0.00 | 0.00 | 80 | 1020.8 |
| 20260906042107 | 72 | 5 | 1.0 | 4.0 | 0.00 | 0.00 | 0.00 | 80 | 1020.8 |
| 20260906041607 | 72 | 355 | 1.0 | 3.0 | 0.00 | 0.00 | 0.00 | 80 | 1020.7 |
| 20260906041101 | 72 | 355 | 1.0 | 3.0 | 0.00 | 0.00 | 0.00 | 80 | 1020.7 |
| 20260906040602 | 72 | 355 | 0.0 | 3.0 | 0.00 | 0.00 | 0.00 | 79 | 1020.6 |
| 20260906040116 | 72 | 348 | 1.0 | 3.0 | 0.00 | 0.00 | 0.00 | 79 | 1020.6 |
| 20260906035616 | 72 | 350 | 0.0 | 3.0 | 0.00 | 0.00 | 0.00 | 78 | 1020.6 |
| 20260906035055 | 72 | 348 | 1.0 | 4.0 | 0.00 | 0.00 | 0.00 | 78 | 1020.6 |
| 20260906034616 | 72 | 347 | 1.0 | 4.0 | 0.00 | 0.00 | 0.00 | 78 | 1020.5 |
| 20260906034108 | 72 | 13 | 1.0 | 4.0 | 0.00 | 0.00 | 0.00 | 79 | 1020.4 |
| 20260906033609 | 72 | 13 | 0.0 | 4.0 | 0.00 | 0.00 | 0.00 | 79 | 1020.4 |
| 20260906033103 | 72 | 13 | 1.0 | 3.0 | 0.00 | 0.00 | 0.00 | 79 | 1020.4 |
| 20260906032624 | 72 | 29 | 0.0 | 4.0 | 0.00 | 0.00 | 0.00 | 79 | 1020.3 |
| 20260906032056 | 72 | 29 | 2.0 | 4.0 | 0.00 | 0.00 | 0.00 | 80 | 1020.4 |
| 20260906031557 | 72 | 5 | 1.0 | 3.0 | 0.00 | 0.00 | 0.00 | 81 | 1020.3 |
| 20260906031051 | 73 | 5 | 1.0 | 3.0 | 0.00 | 0.00 | 0.00 | 81 | 1020.4 |
| 20260906030551 | 73 | 5 | 1.0 | 3.0 | 0.00 | 0.00 | 0.00 | 81 | 1020.3 |
| 20260906030106 | 73 | 5 | 1.0 | 3.0 | 0.00 | 0.00 | 0.00 | 82 | 1020.3 |
| 20260906025606 | 73 | 351 | 0.0 | 3.0 | 0.00 | 0.00 | 0.00 | 82 | 1020.4 |
| 20260906025100 | 73 | 345 | 1.0 | 3.0 | 0.00 | 0.00 | 0.00 | 82 | 1020.4 |
| 20260906024601 | 73 | 345 | 1.0 | 3.0 | 0.00 | 0.00 | 0.00 | 83 | 1020.5 |
| 20260906024056 | 73 | 333 | 1.0 | 3.0 | 0.00 | 0.00 | 0.00 | 83 | 1020.5 |
| 20260906023617 | 73 | 335 | 1.0 | 4.0 | 0.00 | 0.00 | 0.00 | 83 | 1020.5 |
| 20260906023116 | 73 | 349 | 2.0 | 4.0 | 0.00 | 0.00 | 0.00 | 83 | 1020.5 |
| 20260906022610 | 73 | 328 | 1.0 | 3.0 | 0.00 | 0.00 | 0.00 | 84 | 1020.4 |
| 20260906022111 | 73 | 327 | 1.0 | 2.0 | 0.00 | 0.00 | 0.00 | 84 | 1020.4 |
| 20260906021625 | 73 | 327 | 1.0 | 3.0 | 0.00 | 0.00 | 0.00 | 84 | 1020.3 |
| 20260906021101 | 73 | 327 | 2.0 | 3.0 | 0.00 | 0.00 | 0.00 | 84 | 1020.2 |
| 20260906020555 | 73 | 326 | 0.0 | 2.0 | 0.00 | 0.00 | 0.00 | 84 | 1020.2 |
| 20260906020056 | 73 | 326 | 0.0 | 3.0 | 0.00 | 0.00 | 0.00 | 85 | 1020.2 |
| 20260906015606 | 73 | 326 | 1.0 | 3.0 | 0.00 | 0.00 | 0.00 | 85 | 1020.1 |
| 20260906015051 | 73 | 325 | 1.0 | 2.0 | 0.00 | 0.00 | 0.00 | 86 | 1020.1 |
| 20260906014600 | 73 | 325 | 0.0 | 2.0 | 0.00 | 0.00 | 0.00 | 86 | 1020.1 |
| 20260906014101 | 73 | 325 | 0.0 | 2.0 | 0.00 | 0.00 | 0.00 | 86 | 1020.2 |
| 20260906013555 | 73 | 323 | 1.0 | 3.0 | 0.00 | 0.00 | 0.00 | 85 | 1020.1 |
| 20260906013057 | 74 | 322 | 1.0 | 4.0 | 0.00 | 0.00 | 0.00 | 85 | 1020.1 |
| 20260906012619 | 74 | 325 | 2.0 | 4.0 | 0.00 | 0.00 | 0.00 | 85 | 1020.1 |
| 20260906012051 | 74 | 343 | 2.0 | 3.0 | 0.00 | 0.00 | 0.00 | 85 | 1020.1 |
| 20260906011612 | 74 | 347 | 1.0 | 3.0 | 0.00 | 0.00 | 0.00 | 85 | 1020.0 |
| 20260906011133 | 75 | 13 | 2.0 | 3.0 | 0.00 | 0.00 | 0.00 | 84 | 1020.0 |
| 20260906010625 | 75 | 32 | 0.0 | 1.0 | 0.00 | 0.00 | 0.00 | 85 | 1020.0 |
| 20260906010105 | 75 | 32 | 0.0 | 0.0 | 0.00 | 0.00 | 0.00 | 84 | 1019.9 |
| 20260906005559 | 75 | 32 | 0.0 | 0.0 | 0.00 | 0.00 | 0.00 | 84 | 1019.9 |
| 20260906005100 | 75 | 32 | 0.0 | 0.0 | 0.00 | 0.00 | 0.00 | 84 | 1019.9 |
| 20260906004623 | 75 | 32 | 0.0 | 0.0 | 0.00 | 0.00 | 0.00 | 84 | 1020.0 |
| 20260906004115 | 75 | 32 | 0.0 | 0.0 | 0.00 | 0.00 | 0.00 | 84 | 1019.9 |
| 20260906003554 | 75 | 32 | 0.0 | 0.0 | 0.00 | 0.00 | 0.00 | 84 | 1019.9 |
| 20260906003114 | 75 | 32 | 0.0 | 1.0 | 0.00 | 0.00 | 0.00 | 84 | 1019.9 |
| 20260906002608 | 75 | 32 | 0.0 | 3.0 | 0.00 | 0.00 | 0.00 | 84 | 1019.9 |
| 20260906002101 | 76 | 32 | 0.0 | 3.0 | 0.00 | 0.00 | 0.00 | 84 | 1019.9 |
| 20260906001601 | 76 | 30 | 1.0 | 2.0 | 0.00 | 0.00 | 0.00 | 84 | 1020.0 |
| 20260906001100 | 76 | 30 | 0.0 | 2.0 | 0.00 | 0.00 | 0.00 | 84 | 1020.1 |
| 20260906000600 | 76 | 30 | 1.0 | 2.0 | 0.00 | 0.00 | 0.00 | 84 | 1020.1 |
| 20260906000059 | 76 | 30 | 0.0 | 2.0 | 0.00 | 0.00 | 0.00 | 84 | 1019.9 |
| 20260905235613 | 76 | 30 | 0.0 | 2.0 | 0.00 | 0.00 | 0.00 | 84 | 1019.9 |
| 20260905235052 | 76 | 30 | 1.0 | 3.0 | 0.00 | 0.00 | 0.00 | 84 | 1019.9 |
| 20260905234609 | 76 | 30 | 0.0 | 3.0 | 0.00 | 0.00 | 0.00 | 84 | 1019.9 |
| 20260905234103 | 76 | 31 | 0.0 | 2.0 | 0.00 | 0.00 | 0.00 | 84 | 1019.8 |
| 20260905233623 | 76 | 31 | 0.0 | 3.0 | 0.00 | 0.00 | 0.00 | 84 | 1019.8 |
| 20260905233118 | 76 | 31 | 1.0 | 3.0 | 0.00 | 0.00 | 0.00 | 84 | 1019.8 |
| 20260905232550 | 76 | 32 | 0.0 | 2.0 | 0.00 | 0.00 | 0.00 | 85 | 1019.7 |
| 20260905232051 | 76 | 32 | 0.0 | 2.0 | 0.00 | 0.00 | 0.00 | 85 | 1019.7 |
| 20260905231605 | 76 | 32 | 0.0 | 2.0 | 0.00 | 0.00 | 0.00 | 85 | 1019.7 |
| 20260905231126 | 76 | 32 | 1.0 | 4.0 | 0.00 | 0.00 | 0.00 | 85 | 1019.7 |
| 20260905230606 | 76 | 29 | 1.0 | 4.0 | 0.00 | 0.00 | 0.00 | 86 | 1019.6 |
| 20260905230059 | 76 | 25 | 1.0 | 3.0 | 0.00 | 0.00 | 0.00 | 87 | 1019.6 |
| 20260905225559 | 76 | 24 | 1.0 | 3.0 | 0.00 | 0.00 | 0.00 | 87 | 1019.6 |
| 20260905225053 | 76 | 24 | 1.0 | 3.0 | 0.00 | 0.00 | 0.00 | 87 | 1019.5 |
| 20260905224553 | 76 | 23 | 0.0 | 2.0 | 0.00 | 0.00 | 0.00 | 87 | 1019.4 |
| 20260905224115 | 76 | 23 | 0.0 | 2.0 | 0.00 | 0.00 | 0.00 | 87 | 1019.4 |
| 20260905223550 | 77 | 23 | 1.0 | 3.0 | 0.00 | 0.00 | 0.00 | 87 | 1019.4 |
| 20260905223104 | 77 | 23 | 1.0 | 3.0 | 0.00 | 0.00 | 0.00 | 87 | 1019.4 |
| 20260905222605 | 77 | 33 | 1.0 | 3.0 | 0.00 | 0.00 | 0.00 | 87 | 1019.4 |
| 20260905222126 | 77 | 31 | 1.0 | 3.0 | 0.00 | 0.00 | 0.00 | 87 | 1019.4 |
| 20260905221558 | 77 | 25 | 0.0 | 3.0 | 0.00 | 0.00 | 0.00 | 87 | 1019.4 |
| 20260905221059 | 78 | 25 | 0.0 | 3.0 | 0.00 | 0.00 | 0.00 | 86 | 1019.3 |
| 20260905220552 | 78 | 25 | 1.0 | 2.0 | 0.00 | 0.00 | 0.00 | 86 | 1019.2 |
| 20260905220112 | 78 | 98 | 0.0 | 0.0 | 0.00 | 0.00 | 0.00 | 85 | 1019.1 |
| 20260905215605 | 78 | 98 | 0.0 | 0.0 | 0.00 | 0.00 | 0.00 | 85 | 1019.1 |
| 20260905215125 | 79 | 98 | 0.0 | 0.0 | 0.00 | 0.00 | 0.00 | 84 | 1019.1 |
| 20260905214608 | 79 | 98 | 0.0 | 0.0 | 0.00 | 0.00 | 0.00 | 84 | 1019.1 |
| 20260905214100 | 79 | 98 | 0.0 | 0.0 | 0.00 | 0.00 | 0.00 | 84 | 1019.0 |
| 20260905213621 | 79 | 98 | 0.0 | 0.0 | 0.00 | 0.00 | 0.00 | 84 | 1019.0 |
| 20260905213053 | 79 | 98 | 0.0 | 0.0 | 0.00 | 0.00 | 0.00 | 83 | 1018.9 |
| 20260905212554 | 80 | 98 | 0.0 | 0.0 | 0.00 | 0.00 | 0.00 | 83 | 1018.8 |
| 20260905212108 | 80 | 98 | 0.0 | 0.0 | 0.00 | 0.00 | 0.00 | 82 | 1018.7 |
| 20260905211609 | 80 | 98 | 0.0 | 2.0 | 0.00 | 0.00 | 0.00 | 82 | 1018.6 |
| 20260905211103 | 80 | 98 | 0.0 | 3.0 | 0.00 | 0.00 | 0.00 | 82 | 1018.5 |
| 20260905210604 | 80 | 98 | 0.0 | 3.0 | 0.00 | 0.00 | 0.00 | 82 | 1018.5 |
| 20260905210057 | 80 | 98 | 0.0 | 3.0 | 0.00 | 0.00 | 0.00 | 81 | 1018.5 |
| 20260905205558 | 80 | 96 | 1.0 | 3.0 | 0.00 | 0.00 | 0.00 | 81 | 1018.5 |
| 20260905205052 | 81 | 97 | 2.0 | 3.0 | 0.00 | 0.00 | 0.00 | 81 | 1018.6 |
| 20260905204613 | 81 | 96 | 0.0 | 4.0 | 0.00 | 0.00 | 0.00 | 81 | 1018.5 |
| 20260905204107 | 81 | 96 | 2.0 | 4.0 | 0.00 | 0.00 | 0.00 | 80 | 1018.5 |
| 20260905203608 | 81 | 98 | 1.0 | 6.0 | 0.00 | 0.00 | 0.00 | 80 | 1018.4 |
| 20260905203102 | 81 | 109 | 2.0 | 6.0 | 0.00 | 0.00 | 0.00 | 80 | 1018.4 |
| 20260905202603 | 81 | 119 | 1.0 | 5.0 | 0.00 | 0.00 | 0.00 | 80 | 1018.4 |
| 20260905202113 | 81 | 110 | 2.0 | 6.0 | 0.00 | 0.00 | 0.00 | 79 | 1018.4 |
| 20260905201552 | 81 | 99 | 2.0 | 5.0 | 0.00 | 0.00 | 0.00 | 79 | 1018.4 |
| 20260905201113 | 81 | 138 | 1.0 | 5.0 | 0.00 | 0.00 | 0.00 | 79 | 1018.4 |
| 20260905200607 | 81 | 128 | 2.0 | 5.0 | 0.00 | 0.00 | 0.00 | 78 | 1018.3 |
| 20260905200101 | 82 | 145 | 2.0 | 5.0 | 0.00 | 0.00 | 0.00 | 78 | 1018.3 |
| 20260905195602 | 82 | 142 | 3.0 | 5.0 | 0.00 | 0.00 | 0.00 | 78 | 1018.2 |
| 20260905195055 | 82 | 173 | 2.0 | 5.0 | 0.00 | 0.00 | 0.00 | 77 | 1018.2 |
| 20260905194557 | 82 | 144 | 2.0 | 6.0 | 0.00 | 0.00 | 0.00 | 77 | 1018.1 |
| 20260905194051 | 82 | 145 | 3.0 | 6.0 | 0.00 | 0.00 | 0.00 | 77 | 1018.1 |
| 20260905193552 | 83 | 156 | 2.0 | 5.0 | 0.00 | 0.00 | 0.00 | 76 | 1017.9 |
| 20260905193106 | 83 | 163 | 2.0 | 6.0 | 0.00 | 0.00 | 0.00 | 76 | 1017.9 |
| 20260905192627 | 83 | 151 | 2.0 | 6.0 | 0.00 | 0.00 | 0.00 | 75 | 1017.7 |
| 20260905192127 | 83 | 164 | 3.0 | 6.0 | 0.00 | 0.00 | 0.00 | 74 | 1017.6 |
| 20260905191607 | 83 | 150 | 2.0 | 5.0 | 0.00 | 0.00 | 0.00 | 74 | 1017.5 |
| 20260905191100 | 84 | 163 | 1.0 | 4.0 | 0.00 | 0.00 | 0.00 | 73 | 1017.5 |
| 20260905190554 | 84 | 159 | 1.0 | 3.0 | 0.00 | 0.00 | 0.00 | 72 | 1017.5 |
| 20260905190055 | 84 | 151 | 1.0 | 3.0 | 0.00 | 0.00 | 0.00 | 72 | 1017.4 |
| 20260905185616 | 85 | 101 | 1.0 | 3.0 | 0.00 | 0.00 | 0.00 | 72 | 1017.4 |
| 20260905185050 | 85 | 101 | 0.0 | 3.0 | 0.00 | 0.00 | 0.00 | 71 | 1017.2 |
| 20260905184611 | 85 | 101 | 1.0 | 3.0 | 0.00 | 0.00 | 0.00 | 71 | 1017.2 |
| 20260905184106 | 85 | 101 | 1.0 | 3.0 | 0.00 | 0.00 | 0.00 | 71 | 1017.1 |
| 20260905183600 | 85 | 98 | 1.0 | 3.0 | 0.00 | 0.00 | 0.00 | 70 | 1017.0 |
| 20260905183100 | 85 | 96 | 1.0 | 3.0 | 0.00 | 0.00 | 0.00 | 70 | 1016.9 |
| 20260905182554 | 86 | 94 | 1.0 | 4.0 | 0.00 | 0.00 | 0.00 | 69 | 1016.8 |
| 20260905182054 | 86 | 99 | 1.0 | 4.0 | 0.00 | 0.00 | 0.00 | 69 | 1016.8 |
| 20260905181615 | 86 | 111 | 2.0 | 4.0 | 0.00 | 0.00 | 0.00 | 68 | 1016.7 |
| 20260905181129 | 87 | 103 | 2.0 | 4.0 | 0.00 | 0.00 | 0.00 | 68 | 1016.6 |
| 20260905180606 | 87 | 103 | 2.0 | 6.0 | 0.00 | 0.00 | 0.00 | 67 | 1016.6 |
| 20260905180127 | 87 | 102 | 2.0 | 6.0 | 0.00 | 0.00 | 0.00 | 65 | 1016.5 |
| 20260905175606 | 88 | 112 | 1.0 | 3.0 | 0.00 | 0.00 | 0.00 | 65 | 1016.5 |
| 20260905175100 | 88 | 111 | 1.0 | 4.0 | 0.00 | 0.00 | 0.00 | 63 | 1016.4 |
| 20260905174600 | 89 | 111 | 1.0 | 4.0 | 0.00 | 0.00 | 0.00 | 61 | 1016.3 |
| 20260905174122 | 89 | 98 | 1.0 | 3.0 | 0.00 | 0.00 | 0.00 | 60 | 1016.3 |
| 20260905173554 | 90 | 94 | 1.0 | 9.0 | 0.00 | 0.00 | 0.00 | 57 | 1016.2 |
| 20260905173115 | 90 | 92 | 4.0 | 9.0 | 0.00 | 0.00 | 0.00 | 54 | 1016.1 |
| 20260905172609 | 91 | 158 | 0.0 | 2.0 | 0.00 | 0.00 | 0.00 | 49 | 1016.0 |
| 20260905172105 | 91 | 158 | 0.0 | 2.0 | 0.00 | 0.00 | 0.00 | 48 | 1015.9 |
| 20260905171626 | 91 | 159 | 0.0 | 2.0 | 0.00 | 0.00 | 0.00 | 48 | 1015.9 |
| 20260905171059 | 91 | 159 | 0.0 | 2.0 | 0.00 | 0.00 | 0.00 | 48 | 1015.9 |
| 20260905170600 | 92 | 159 | 0.0 | 2.0 | 0.00 | 0.00 | 0.00 | 48 | 1015.9 |
| 20260905170124 | 92 | 159 | 1.0 | 2.0 | 0.00 | 0.00 | 0.00 | 47 | 1015.9 |
| 20260905165556 | 92 | 157 | 0.0 | 3.0 | 0.00 | 0.00 | 0.00 | 47 | 1015.9 |
| 20260905165117 | 92 | 158 | 2.0 | 4.0 | 0.00 | 0.00 | 0.00 | 46 | 1015.8 |
| 20260905164550 | 92 | 157 | 2.0 | 4.0 | 0.00 | 0.00 | 0.00 | 46 | 1015.7 |
| 20260905164111 | 93 | 145 | 2.0 | 4.0 | 0.00 | 0.00 | 0.00 | 46 | 1015.7 |
| 20260905163604 | 93 | 151 | 1.0 | 5.0 | 0.00 | 0.00 | 0.00 | 46 | 1015.6 |
| 20260905163125 | 93 | 148 | 2.0 | 5.0 | 0.00 | 0.00 | 0.00 | 46 | 1015.6 |
| 20260905162605 | 93 | 148 | 2.0 | 3.0 | 0.00 | 0.00 | 0.00 | 46 | 1015.6 |
| 20260905162058 | 93 | 138 | 1.0 | 3.0 | 0.00 | 0.00 | 0.00 | 46 | 1015.5 |
| 20260905161558 | 93 | 69 | 0.0 | 3.0 | 0.00 | 0.00 | 0.00 | 47 | 1015.5 |
| 20260905161052 | 94 | 68 | 2.0 | 3.0 | 0.00 | 0.00 | 0.00 | 45 | 1015.5 |
| 20260905160613 | 94 | 214 | 0.0 | 3.0 | 0.00 | 0.00 | 0.00 | 44 | 1015.5 |
| 20260905160106 | 95 | 216 | 1.0 | 2.0 | 0.00 | 0.00 | 0.00 | 45 | 1015.6 |
| 20260905155607 | 95 | 235 | 0.0 | 4.0 | 0.00 | 0.00 | 0.00 | 45 | 1015.5 |
| 20260905155101 | 95 | 236 | 2.0 | 4.0 | 0.00 | 0.00 | 0.00 | 44 | 1015.5 |
| 20260905154602 | 95 | 252 | 0.0 | 2.0 | 0.00 | 0.00 | 0.00 | 44 | 1015.4 |
| 20260905154056 | 95 | 254 | 0.0 | 1.0 | 0.00 | 0.00 | 0.00 | 45 | 1015.5 |
| 20260905153616 | 94 | 257 | 0.0 | 3.0 | 0.00 | 0.00 | 0.00 | 46 | 1015.4 |
| 20260905153050 | 94 | 257 | 1.0 | 4.0 | 0.00 | 0.00 | 0.00 | 46 | 1015.3 |
| 20260905152611 | 94 | 189 | 1.0 | 4.0 | 0.00 | 0.00 | 0.00 | 46 | 1015.3 |
| 20260905152104 | 94 | 243 | 0.0 | 4.0 | 0.00 | 0.00 | 0.00 | 46 | 1015.3 |
| 20260905151605 | 93 | 233 | 1.0 | 4.0 | 0.00 | 0.00 | 0.00 | 46 | 1015.4 |
| 20260905151105 | 93 | 205 | 1.0 | 4.0 | 0.00 | 0.00 | 0.00 | 47 | 1015.3 |
| 20260905150558 | 93 | 193 | 1.0 | 6.0 | 0.00 | 0.00 | 0.00 | 47 | 1015.4 |
| 20260905150059 | 93 | 203 | 2.0 | 6.0 | 0.00 | 0.00 | 0.00 | 48 | 1015.3 |
| 20260905145553 | 93 | 201 | 1.0 | 4.0 | 0.00 | 0.00 | 0.00 | 49 | 1015.3 |
| 20260905145113 | 93 | 90 | 1.0 | 3.0 | 0.00 | 0.00 | 0.00 | 48 | 1015.3 |
| 20260905144607 | 93 | 67 | 1.0 | 5.0 | 0.00 | 0.00 | 0.00 | 48 | 1015.3 |
| 20260905144109 | 94 | 101 | 2.0 | 5.0 | 0.00 | 0.00 | 0.00 | 48 | 1015.3 |
| 20260905143602 | 94 | 360 | 1.0 | 4.0 | 0.00 | 0.00 | 0.00 | 47 | 1015.3 |
| 20260905143059 | 94 | 293 | 2.0 | 3.0 | 0.00 | 0.00 | 0.00 | 46 | 1015.5 |
| 20260905142553 | 94 | 175 | 1.0 | 3.0 | 0.00 | 0.00 | 0.00 | 47 | 1015.5 |
| 20260905142115 | 94 | 175 | 0.0 | 3.0 | 0.00 | 0.00 | 0.00 | 47 | 1015.5 |
| 20260905141614 | 94 | 173 | 1.0 | 4.0 | 0.00 | 0.00 | 0.00 | 48 | 1015.5 |
| 20260905141124 | 93 | 205 | 2.0 | 6.0 | 0.00 | 0.00 | 0.00 | 48 | 1015.6 |
| 20260905140604 | 93 | 214 | 2.0 | 6.0 | 0.00 | 0.00 | 0.00 | 48 | 1015.6 |
| 20260905140056 | 93 | 200 | 3.0 | 6.0 | 0.00 | 0.00 | 0.00 | 49 | 1015.6 |
| 20260905135555 | 93 | 153 | 3.0 | 5.0 | 0.00 | 0.00 | 0.00 | 49 | 1015.6 |
| 20260905135116 | 93 | 88 | 1.0 | 3.0 | 0.00 | 0.00 | 0.00 | 49 | 1015.7 |
| 20260905134550 | 93 | 61 | 1.0 | 4.0 | 0.00 | 0.00 | 0.00 | 49 | 1015.7 |
| 20260905134131 | 93 | 348 | 1.0 | 4.0 | 0.00 | 0.00 | 0.00 | 49 | 1015.7 |
| 20260905133603 | 93 | 321 | 1.0 | 6.0 | 0.00 | 0.00 | 0.00 | 49 | 1015.8 |
| 20260905133103 | 93 | 309 | 2.0 | 7.0 | 0.00 | 0.00 | 0.00 | 49 | 1015.9 |
| 20260905132617 | 93 | 266 | 1.0 | 5.0 | 0.00 | 0.00 | 0.00 | 49 | 1016.0 |
| 20260905132056 | 93 | 355 | 1.0 | 4.0 | 0.00 | 0.00 | 0.00 | 50 | 1016.0 |
| 20260905131551 | 93 | 271 | 1.0 | 7.0 | 0.00 | 0.00 | 0.00 | 50 | 1016.1 |
| 20260905131051 | 92 | 233 | 2.0 | 7.0 | 0.00 | 0.00 | 0.00 | 49 | 1016.1 |
| 20260905130612 | 92 | 220 | 2.0 | 6.0 | 0.00 | 0.00 | 0.00 | 50 | 1016.1 |
| 20260905130106 | 92 | 164 | 3.0 | 10.0 | 0.00 | 0.00 | 0.00 | 50 | 1016.2 |
| 20260905125601 | 93 | 230 | 6.0 | 10.0 | 0.00 | 0.00 | 0.00 | 49 | 1016.2 |
| 20260905125102 | 93 | 246 | 2.0 | 7.0 | 0.00 | 0.00 | 0.00 | 49 | 1016.2 |
| 20260905124556 | 93 | 152 | 2.0 | 6.0 | 0.00 | 0.00 | 0.00 | 50 | 1016.2 |
| 20260905124118 | 93 | 147 | 2.0 | 6.0 | 0.00 | 0.00 | 0.00 | 49 | 1016.4 |
| 20260905123557 | 93 | 111 | 2.0 | 5.0 | 0.00 | 0.00 | 0.00 | 49 | 1016.5 |
| 20260905123111 | 92 | 216 | 3.0 | 4.0 | 0.00 | 0.00 | 0.00 | 49 | 1016.5 |
| 20260905122558 | 92 | 319 | 1.0 | 4.0 | 0.00 | 0.00 | 0.00 | 50 | 1016.5 |
| 20260905122119 | 92 | 244 | 0.0 | 4.0 | 0.00 | 0.00 | 0.00 | 50 | 1016.6 |
| 20260905121551 | 91 | 261 | 1.0 | 3.0 | 0.00 | 0.00 | 0.00 | 50 | 1016.6 |
| 20260905121052 | 90 | 344 | 1.0 | 3.0 | 0.00 | 0.00 | 0.00 | 51 | 1016.7 |
| 20260905120612 | 91 | 38 | 2.0 | 3.0 | 0.00 | 0.00 | 0.00 | 50 | 1016.7 |
| 20260905120105 | 91 | 312 | 0.0 | 3.0 | 0.00 | 0.00 | 0.00 | 50 | 1016.8 |
| 20260905115605 | 90 | 308 | 1.0 | 3.0 | 0.00 | 0.00 | 0.00 | 50 | 1016.8 |
| 20260905115059 | 90 | 305 | 1.0 | 3.0 | 0.00 | 0.00 | 0.00 | 50 | 1016.8 |
| 20260905114600 | 90 | 269 | 0.0 | 8.0 | 0.00 | 0.00 | 0.00 | 51 | 1016.8 |
| 20260905114053 | 90 | 309 | 3.0 | 8.0 | 0.00 | 0.00 | 0.00 | 50 | 1016.9 |
| 20260905113554 | 90 | 271 | 1.0 | 7.0 | 0.00 | 0.00 | 0.00 | 51 | 1016.8 |
| 20260905113135 | 90 | 295 | 1.0 | 7.0 | 0.00 | 0.00 | 0.00 | 51 | 1016.8 |
| 20260905112635 | 89 | 226 | 1.0 | 10.0 | 0.00 | 0.00 | 0.00 | 53 | 1016.8 |
| 20260905112107 | 88 | 346 | 4.0 | 10.0 | 0.00 | 0.00 | 0.00 | 55 | 1016.8 |
| 20260905111609 | 88 | 26 | 2.0 | 4.0 | 0.00 | 0.00 | 0.00 | 55 | 1016.8 |
| 20260905111115 | 89 | 55 | 1.0 | 4.0 | 0.00 | 0.00 | 0.00 | 53 | 1016.8 |
| 20260905110555 | 89 | 333 | 3.0 | 4.0 | 0.00 | 0.00 | 0.00 | 52 | 1016.9 |
| 20260905110116 | 89 | 355 | 1.0 | 4.0 | 0.00 | 0.00 | 0.00 | 52 | 1016.9 |
| 20260905105608 | 89 | 259 | 2.0 | 4.0 | 0.00 | 0.00 | 0.00 | 53 | 1017.0 |
| 20260905105102 | 88 | 10 | 0.0 | 3.0 | 0.00 | 0.00 | 0.00 | 53 | 1016.9 |
| 20260905104603 | 88 | 43 | 1.0 | 3.0 | 0.00 | 0.00 | 0.00 | 54 | 1016.9 |
| 20260905104057 | 87 | 49 | 0.0 | 4.0 | 0.00 | 0.00 | 0.00 | 54 | 1016.9 |
| 20260905103618 | 87 | 40 | 1.0 | 5.0 | 0.00 | 0.00 | 0.00 | 54 | 1017.0 |
| 20260905103059 | 87 | 5 | 3.0 | 5.0 | 0.00 | 0.00 | 0.00 | 54 | 1017.1 |
| 20260905102550 | 87 | 5 | 0.0 | 3.0 | 0.00 | 0.00 | 0.00 | 56 | 1017.1 |
| 20260905102111 | 86 | 5 | 0.0 | 4.0 | 0.00 | 0.00 | 0.00 | 56 | 1017.1 |
| 20260905101550 | 86 | 32 | 2.0 | 4.0 | 0.00 | 0.00 | 0.00 | 56 | 1017.1 |
| 20260905101104 | 86 | 327 | 2.0 | 4.0 | 0.00 | 0.00 | 0.00 | 56 | 1017.0 |
| 20260905100605 | 86 | 311 | 1.0 | 4.0 | 0.00 | 0.00 | 0.00 | 57 | 1017.1 |